Disclaimer

Please do not use the information listed here in-flight or in-navigation, as they are not provided to us by the airports but are provided by volunteers, so they might be outdated.

Search


Regions


Airport information page

Radio informations:
IQUITOS TWR - 118.5 MHz
IQUITOS APP - 124.1 MHz

Airport informations:
Latitude: 03° 47' 05.06" S
Longitude: 073° 18' 31.70" W
Elevation: 306 feet - 93 meters
Operating hours: N/A
Operating agency: Military-civil joint use airport
Timezone: UTC-5
Fuel: Jet A1, without icing nhibitor.

Runway information:
06/24 - 8202 x 148 feet< - >2500 x 45 meters

Recent METARs:
SPQT 192300Z VRB05KT 9999 SCT020 SCT100 28/23 Q1009 NOSIG RMK PP000
SPQT 200000Z VRB01KT 9999 SCT020 26/24 Q1010 NOSIG RMK PP000
SPQT 200000Z VRB01KT 9999 SCT020 26/24 Q1010 NOSIG RMK PP000

Airport on the map: